Weather History for SABE - January, 2013

Change the Weather History Date:

Wednesday, January 9, 2013

  Actual Average Record
Temperature  
Mean Temperature 77 °F -  
Max Temperature 81 °F 82 °F 93 °F (2012)
Min Temperature 73 °F 68 °F 60 °F (1999)
Cooling Degree Days 12    
Growing Degree Days 27 (Base 50)    
Moisture  
Dew Point 68 °F    
Average Humidity 70    
Maximum Humidity 89    
Minimum Humidity 52    
Precipitation  
Precipitation 0.00 in 0.13 in - ()
Sea Level Pressure  
Sea Level Pressure 30.01 in    
Wind  
Wind Speed 10 mph ()    
Max Wind Speed 18 mph    
Max Gust Speed 28 mph    
Visibility 6.1 miles    
Events      
Averages and records for this station are not official NWS values.
T = Trace of Precipitation, MM = Missing Value Source: Averaged Metar Reports

Daily Weather History Graph

Daily Weather History Graph

Search for Another Location

Airport or City:

Trip Planner

Search our weather history database for the weather conditions in past years. The results will help you decide how hot, cold, wet, or windy it might be!

Date:

Astronomy

Jan. 09, 2013 Rise Set
Actual Time 5:51 AM ART 8:10 PM ART
Civil Twilight 5:22 AM ART 8:39 PM ART
Nautical Twilight 4:46 AM ART 9:14 PM ART
Astronomical Twilight 4:08 AM ART 9:53 PM ART
Moon 3:28 AM ART (1/9) 6:04 PM ART (1/9)
Length of Visible Light 15h 16m
Length of Day
14h 18m
Waning Crescent, 7% of the Moon is Illuminated
Jan 9
Waning Crescent
Jan 11
New
Jan 18
First Quarter
Jan 27
Full
Feb 3
Last Quarter

Hourly Weather History & Observations

Time (ART) Temp. Heat Index Dew Point Humidity Pressure Visibility Wind Dir Wind Speed Gust Speed Precip Events Conditions
12:00 AM 77.0 °F - 71.6 °F 83% 29.92 in 6.2 mi ESE 4.6 mph - N/A   Unknown
1:00 AM 77.0 °F - 71.6 °F 83% 29.92 in - ESE 6.9 mph - N/A   Clear
2:00 AM 77.0 °F - 73.4 °F 89% 29.92 in 6.2 mi East 4.6 mph - N/A   Scattered Clouds
3:00 AM 77 °F - 70 °F 74% 29.94 in 6 mi South 6.9 mph - -   Partly Cloudy
3:00 AM 77.0 °F - 69.8 °F 78% 29.92 in 6.2 mi South 6.9 mph - N/A   Scattered Clouds
4:00 AM 75.2 °F - 69.8 °F 83% 29.95 in 4.3 mi SSE 11.5 mph - N/A   Scattered Clouds
5:00 AM 73.4 °F - 69.8 °F 88% 29.98 in 5.6 mi SSE 11.5 mph - N/A   Scattered Clouds
6:00 AM 74 °F - 70 °F 83% 30.01 in 6 mi SSE 11.5 mph - -   Mostly Cloudy
6:00 AM 73.4 °F - 69.8 °F 88% 30.01 in 6.2 mi SSE 11.5 mph - N/A   Mostly Cloudy
7:00 AM 75.2 °F - 68.0 °F 78% 30.01 in 6.2 mi ESE 18.4 mph - N/A   Scattered Clouds
8:00 AM 77.0 °F - 69.8 °F 78% 30.04 in 6.2 mi ESE 16.1 mph - N/A   Partly Cloudy
9:00 AM 78.8 °F - 68.0 °F 69% 30.04 in 6.2 mi ESE 12.7 mph - N/A   Scattered Clouds
10:00 AM 80.6 °F 83.9 °F 69.8 °F 70% 30.04 in 6.2 mi East 13.8 mph - N/A   Mostly Cloudy
11:00 AM 78.8 °F - 68.0 °F 69% 30.06 in 6.2 mi ESE 15.0 mph - N/A   Scattered Clouds
12:00 PM 79 °F - 66 °F 57% 30.06 in 6 mi ESE 13.8 mph - -   Scattered Clouds
12:00 PM 78.8 °F - 66.2 °F 65% 30.06 in 6.2 mi ESE 13.8 mph - N/A   Partly Cloudy
1:00 PM 80.6 °F 82.7 °F 66.2 °F 61% 30.06 in 6.2 mi SE 16.1 mph - N/A   Unknown
2:00 PM 80.6 °F 82.7 °F 66.2 °F 61% 30.04 in 6.2 mi ESE 13.8 mph - N/A   Unknown
3:00 PM 81 °F - 67 °F 54% 30.05 in 6 mi ESE 16.1 mph - -  
3:00 PM 80.6 °F 83.2 °F 68.0 °F 65% 30.04 in 6.2 mi ESE 16.1 mph - N/A   Unknown
4:00 PM 80.6 °F 82.7 °F 66.2 °F 61% 30.04 in 6.2 mi ESE 16.1 mph - N/A   Unknown
5:00 PM 80.6 °F 83.9 °F 69.8 °F 70% 30.01 in 6.2 mi ESE 16.1 mph - N/A   Unknown
6:00 PM 80 °F - 69 °F 60% 30.00 in 6 mi ESE 17.3 mph - -  
6:00 PM 80.6 °F 83.2 °F 68.0 °F 65% 29.98 in 6.2 mi ESE 17.3 mph - N/A   Unknown
7:00 PM 78.8 °F - 66.2 °F 65% 30.01 in 6.2 mi ESE 18.4 mph - N/A   Unknown
8:00 PM 78.8 °F - 62.6 °F 57% 30.04 in 6.2 mi ESE 16.1 mph 27.6 mph N/A   Unknown
9:00 PM 78 °F - 64 °F 52% 30.05 in 6 mi ESE 17.3 mph - -  
9:00 PM 78.8 °F - 64.4 °F 61% 30.04 in 6.2 mi ESE 17.3 mph - N/A   Unknown
10:00 PM 78.8 °F - 64.4 °F 61% 30.04 in 6.2 mi East 12.7 mph 25.3 mph N/A   Unknown
11:00 PM 80.6 °F 82.3 °F 64.4 °F 58% 30.06 in 6.2 mi East 13.8 mph 25.3 mph N/A   Unknown